Douglas, WY

6:35 AM MDT on June 22, 2017 (GMT -0600)
Converse County

Weather History for KDGW - September, 2013

Change the Weather History Date:

Monday, September 9, 2013

  Actual Average Record
Temperature  
Mean Temperature 65 °F 62 °F  
Max Temperature 72 °F 79 °F 91 °F (2012)
Min Temperature 58 °F 45 °F 29 °F (2001)
Degree Days  
Heating Degree Days 0 5  
Month to date heating degree days 0 34  
Since 1 July heating degree days 0 75  
Cooling Degree Days 0 1  
Month to date cooling degree days 78 20  
Year to date cooling degree days 729 478  
Growing Degree Days 16 (Base 50)    
Moisture  
Dew Point 55 °F    
Average Humidity 72    
Maximum Humidity 90    
Minimum Humidity 53    
Precipitation  
Precipitation 0.02 in 0.03 in 0.51 in (2003)
Month to date precipitation 0.11 0.32  
Year to date precipitation 6.33 10.37  
Sea Level Pressure  
Sea Level Pressure 29.88 in    
Wind  
Wind Speed 6 mph (North)    
Max Wind Speed 16 mph    
Max Gust Speed 21 mph    
Visibility 10 miles    
Events      
T = Trace of Precipitation, MM = Missing Value Source: NWS Daily Summary

Daily Weather History Graph

Daily Weather History Graph

Search for Another Location

Airport or City:

Trip Planner

Search our weather history database for the weather conditions in past years. The results will help you decide how hot, cold, wet, or windy it might be!

Date:

Astronomy

Sep. 09, 2013 Rise Set
Actual Time 6:35 AM MDT 7:21 PM MDT
Civil Twilight 6:06 AM MDT 7:50 PM MDT
Nautical Twilight 5:32 AM MDT 8:24 PM MDT
Astronomical Twilight 4:57 AM MDT 8:59 PM MDT
Moon 11:06 AM MDT (9/9) 9:32 PM MDT (9/9)
Length of Visible Light 13h 43m
Length of Day
12h 46m
Waxing Crescent, 19% of the Moon is Illuminated
Sep 9
Waxing Crescent
Sep 12
First Quarter
Sep 19
Full
Sep 26
Last Quarter
Oct 4
New

Hourly Weather History & Observations

Time (MDT) Temp. Dew Point Humidity Pressure Visibility Wind Dir Wind Speed Gust Speed Precip Events Conditions
12:53 AM 64.0 °F 55.9 °F 75% 29.79 in 10.0 mi NW 8.1 mph - N/A   Mostly Cloudy
1:53 AM 62.1 °F 55.9 °F 80% 29.78 in 10.0 mi West 5.8 mph - N/A   Scattered Clouds
2:53 AM 63.0 °F 55.0 °F 75% 29.77 in 10.0 mi NE 4.6 mph - N/A   Clear
3:53 AM 63.0 °F 54.0 °F 72% 29.77 in 10.0 mi West 6.9 mph - 0.01 in   Clear
4:53 AM 63.0 °F 54.0 °F 72% 29.79 in 10.0 mi NNW 4.6 mph - N/A   Partly Cloudy
5:53 AM 61.0 °F 54.0 °F 78% 29.85 in 10.0 mi WNW 9.2 mph - N/A   Clear
6:53 AM 62.1 °F 53.1 °F 72% 29.86 in 10.0 mi NNW 8.1 mph - N/A   Partly Cloudy
7:53 AM 62.1 °F 52.0 °F 70% 29.87 in 10.0 mi North 9.2 mph - N/A   Mostly Cloudy
8:53 AM 61.0 °F 54.0 °F 78% 29.91 in 10.0 mi NNW 9.2 mph - N/A   Overcast
9:53 AM 62.1 °F 55.0 °F 78% 29.92 in 10.0 mi North 6.9 mph - 0.01 in   Overcast
10:43 AM 64.4 °F 55.4 °F 73% 30.05 in 10.0 mi NNW 6.9 mph - N/A   Partly Cloudy
10:53 AM 64.0 °F 55.0 °F 73% 29.91 in 10.0 mi NNW 5.8 mph - N/A   Scattered Clouds
11:53 AM 66.0 °F 54.0 °F 65% 29.90 in 10.0 mi NW 6.9 mph - N/A   Partly Cloudy
12:53 PM 68.0 °F 54.0 °F 61% 29.88 in 10.0 mi Variable 3.5 mph - N/A   Clear
1:53 PM 70.0 °F 53.1 °F 55% 29.87 in 10.0 mi North 5.8 mph - N/A   Clear
2:53 PM 69.1 °F 53.1 °F 57% 29.86 in 10.0 mi Calm Calm - N/A   Mostly Cloudy
3:53 PM 71.1 °F 54.0 °F 55% 29.86 in 10.0 mi SE 9.2 mph - 0.01 in   Mostly Cloudy
4:53 PM 69.1 °F 55.0 °F 61% 29.87 in 10.0 mi SSE 9.2 mph - N/A   Scattered Clouds
5:53 PM 66.9 °F 55.0 °F 66% 29.89 in 10.0 mi SE 8.1 mph - N/A   Partly Cloudy
6:53 PM 66.0 °F 55.0 °F 68% 29.91 in 10.0 mi SE 6.9 mph - N/A   Overcast
7:53 PM 64.9 °F 55.9 °F 73% 29.91 in 10.0 mi SE 6.9 mph - N/A   Overcast
8:53 PM 62.1 °F 55.9 °F 80% 29.94 in 10.0 mi ESE 5.8 mph - N/A   Mostly Cloudy
9:53 PM 60.1 °F 55.9 °F 86% 29.96 in 10.0 mi East 6.9 mph - N/A   Clear
10:53 PM 61.0 °F 57.0 °F 87% 29.96 in 10.0 mi ENE 3.5 mph - N/A   Clear
11:53 PM 59.0 °F 54.0 °F 83% 29.96 in 10.0 mi South 3.5 mph - N/A   Partly Cloudy